Regional Weather Roundup
Issued by NWS State College, PA

Current Version | Previous Version | Text Only | Print | Product List | Glossary On
Versions: 1 2 3 4 5 6 7 8 9 10 11 12 13 14 15 16 17 18 19 20 21 22 23 24 25 26 27 28 29 30 31 32 33 34 35 36 37 38 39 40 41 42 43 44 45 46 47 48 49 50
000
ASUS41 KCTP 012303
RWRCTP

REGIONAL WEATHER ROUNDUP
NATIONAL WEATHER SERVICE STATE COLLEGE PA
700 PM EDT WED OCT 01 2014

Note: "fair" indicates few or no clouds below 12,000 feet with no
significant weather and/or obstructions to visibility.

* = STATION THAT DOES NOT REPORT PRECIPITATION /E.G. RAIN...SNOW...ETC/
    THUNDER OR FOG.

PAZ002>004-007>009-013>016-020>023-029>032-020000-
WESTERN PENNSYLVANIA

CITY           SKY/WX    TMP DP  RH WIND       PRES   REMARKS
ERIE           PTCLDY    65  59  81 NE10      30.03R
MEADVILLE      CLEAR     65  56  72 SW3       30.04R
FRANKLIN*      CLEAR     64  54  68 CALM      30.05R
NEW CASTLE       N/A     62  58  87 CALM      30.04R
BEAVER COUNTY  CLEAR     63  55  77 CALM      30.03S
BUTLER*        CLEAR     63  55  77 CALM      30.05R
PITTSBURGH INT PTCLDY    64  57  78 NE3       30.02S
PITTSBURGH     PTCLDY    64  54  69 W3        30.02R HAZE
INDIANA*       CLEAR     66  55  68 E3        30.07R
LATROBE        CLEAR     66  61  82 VRB6      30.04R
WASHINGTON CO* CLEAR     61  55  82 CALM      30.04S
$$

PAZ004>006-010>012-017>019-024>028-033>037-041-042-045-046-049>053-020000-
CENTRAL PENNSYLVANIA

CITY           SKY/WX    TMP DP  RH WIND       PRES   REMARKS
BRADFORD       CLEAR     62  53  72 CALM      30.07R
DUBOIS         CLEAR     62  55  77 E6        30.04S
CLEARFIELD     CLEAR     65  54  67 SE3       30.06R
JOHNSTOWN      CLEAR     61  53  75 E5        30.06R
ALTOONA        CLEAR     62  58  86 E5        30.06R
STATE COLLEGE  CLEAR     64  57  77 SW6       30.06R
WILLIAMSPORT   CLEAR     65  60  84 CALM      30.02R
SELINSGROVE    CLEAR     64  57  78 W3        30.04R
FT INDIANTOWN  CLOUDY    68  65  89 W3        30.04R
CAPITAL CITY   CLEAR     66  59  78 W5        30.03R
HARRISBURG     PTCLDY    64  60  87 CALM      30.02S
YORK           CLEAR     62  58  86 W3        30.04R
$$

PAZ038>040-043-044-047-048-054-055-060>062-067>071-020000-
EASTERN PENNSYLVANIA

CITY           SKY/WX    TMP DP  RH WIND       PRES   REMARKS
SCRANTON       CLEAR     66  53  63 E5        30.05R
MOUNT POCONO   PTCLDY    57  53  86 E3        30.08R
ALLENTOWN      PTCLDY    65  55  70 E8        30.05R
QUAKERTOWN*    CLOUDY    64  55  72 NE5       30.06R
READING        CLOUDY    69  56  62 E7        30.03R
LANCASTER      PTCLDY    68  56  65 W3        30.03R
COATESVILLE    CLOUDY    66  57  72 NE3       30.05R
POTTSTOWN      CLOUDY    66  56  70 NE6       30.06R
BLUE BELL      MOCLDY    66  59  77 CALM      30.04R
DOYLESTOWN     CLOUDY    64  57  78 NE3       30.04R
WILLOW GROVE   NOT AVBL
NORTH PHILA    CLOUDY    68  55  63 NE12      30.05R
PHILADELPHIA   PTCLDY    66  57  72 E8        30.04R
$$



USA.gov is the U.S. government's official web portal to all federal, state and local government web resources and services.